Time,TemperatureF,DewpointF,PressureIn,WindDirection,WindDirectionDegrees,WindSpeedMPH,WindSpeedGustMPH,Humidity,HourlyPrecipIn,Conditions,Clouds,dailyrainin,SolarRadiationWatts/m^2,SoftwareType,DateUTC
2013-01-22 00:02:00,-4.0,-20.0,-100.00,WNW,294,11.0,19.0,45,0.00,,,0.00,17.000000,,2013-01-22 00:02:00,
2013-01-22 00:12:00,-5.0,-20.0,-100.00,WNW,294,8.0,15.0,48,0.00,,,0.00,0.000000,,2013-01-22 00:12:00,
2013-01-22 00:33:00,-5.0,-20.0,-100.00,WNW,294,8.0,15.0,48,0.00,,,0.00,0.000000,,2013-01-22 00:33:00,
2013-01-22 00:43:00,-5.0,-20.0,-100.00,WNW,294,8.0,15.0,48,0.00,,,0.00,0.000000,,2013-01-22 00:43:00,
2013-01-22 00:53:00,-5.0,-20.0,-100.00,WNW,294,8.0,15.0,48,0.00,,,0.00,0.000000,,2013-01-22 00:53:00,
2013-01-22 01:02:00,-5.0,-20.0,-100.00,WNW,294,8.0,15.0,48,0.00,,,0.00,0.000000,,2013-01-22 01:02:00,
2013-01-22 02:12:00,-6.0,-19.0,-100.00,NW,317,7.0,15.0,51,-99.99,,,0.00,0.000000,,2013-01-22 02:12:00,
2013-01-22 02:33:00,-6.0,-19.0,-100.00,NW,317,7.0,15.0,51,-99.99,,,0.00,0.000000,,2013-01-22 02:33:00,
2013-01-22 02:43:00,-6.0,-19.0,-100.00,NW,317,7.0,15.0,51,-99.99,,,0.00,0.000000,,2013-01-22 02:43:00,
2013-01-22 02:53:00,-6.0,-19.0,-100.00,NW,317,7.0,15.0,51,-99.99,,,0.00,0.000000,,2013-01-22 02:53:00,
2013-01-22 03:02:00,-6.0,-19.0,-100.00,NW,317,7.0,15.0,51,-99.99,,,0.00,0.000000,,2013-01-22 03:02:00,
2013-01-22 03:12:00,-7.0,-20.0,-100.00,NW,306,8.0,14.0,51,0.00,,,0.00,0.000000,,2013-01-22 03:12:00,
2013-01-22 03:43:00,-7.0,-20.0,-100.00,NW,306,8.0,14.0,51,0.00,,,0.00,0.000000,,2013-01-22 03:43:00,
2013-01-22 03:53:00,-7.0,-20.0,-100.00,NW,306,8.0,14.0,51,0.00,,,0.00,0.000000,,2013-01-22 03:53:00,
2013-01-22 04:02:00,-7.0,-20.0,-100.00,NW,306,8.0,14.0,51,0.00,,,0.00,0.000000,,2013-01-22 04:02:00,
2013-01-22 04:12:00,-7.0,-20.0,-100.00,WNW,302,7.0,15.0,53,0.00,,,0.00,0.000000,,2013-01-22 04:12:00,
2013-01-22 04:33:00,-7.0,-20.0,-100.00,WNW,302,7.0,15.0,53,0.00,,,0.00,0.000000,,2013-01-22 04:33:00,
2013-01-22 04:42:00,-7.0,-20.0,-100.00,WNW,302,7.0,15.0,53,0.00,,,0.00,0.000000,,2013-01-22 04:42:00,
2013-01-22 04:52:00,-7.0,-20.0,-100.00,WNW,302,7.0,15.0,53,0.00,,,0.00,0.000000,,2013-01-22 04:52:00,
2013-01-22 05:04:00,-7.0,-20.0,-100.00,WNW,302,7.0,15.0,53,0.00,,,0.00,0.000000,,2013-01-22 05:04:00,
2013-01-22 05:12:00,-8.0,-20.0,-100.00,NW,312,6.0,14.0,55,0.00,,,0.00,0.000000,,2013-01-22 05:12:00,
2013-01-22 05:33:00,-8.0,-20.0,-100.00,NW,312,6.0,14.0,55,0.00,,,0.00,0.000000,,2013-01-22 05:33:00,
2013-01-22 05:43:00,-8.0,-20.0,-100.00,NW,312,6.0,14.0,55,0.00,,,0.00,0.000000,,2013-01-22 05:43:00,
2013-01-22 05:53:00,-8.0,-20.0,-100.00,NW,312,6.0,14.0,55,0.00,,,0.00,0.000000,,2013-01-22 05:53:00,
2013-01-22 06:02:00,-8.0,-20.0,-100.00,NW,312,6.0,14.0,55,0.00,,,0.00,0.000000,,2013-01-22 06:02:00,
2013-01-22 06:12:00,-8.0,-20.0,-100.00,WNW,303,5.0,11.0,54,0.00,,,0.00,0.000000,,2013-01-22 06:12:00,
2013-01-22 06:33:00,-8.0,-20.0,-100.00,WNW,303,5.0,11.0,54,0.00,,,0.00,0.000000,,2013-01-22 06:33:00,
2013-01-22 06:43:00,-8.0,-20.0,-100.00,WNW,303,5.0,11.0,54,0.00,,,0.00,0.000000,,2013-01-22 06:43:00,
2013-01-22 06:53:00,-8.0,-20.0,-100.00,WNW,303,5.0,11.0,54,0.00,,,0.00,0.000000,,2013-01-22 06:53:00,
2013-01-22 07:02:00,-8.0,-20.0,-100.00,WNW,303,5.0,11.0,54,0.00,,,0.00,0.000000,,2013-01-22 07:02:00,
2013-01-22 07:12:00,-9.0,-20.0,-100.00,West,281,5.0,8.0,57,0.00,,,0.00,0.000000,,2013-01-22 07:12:00,
2013-01-22 07:33:00,-9.0,-20.0,-100.00,West,281,5.0,8.0,57,0.00,,,0.00,0.000000,,2013-01-22 07:33:00,
2013-01-22 07:43:00,-9.0,-20.0,-100.00,West,281,5.0,8.0,57,0.00,,,0.00,0.000000,,2013-01-22 07:43:00,
2013-01-22 07:53:00,-9.0,-20.0,-100.00,West,281,5.0,8.0,57,0.00,,,0.00,0.000000,,2013-01-22 07:53:00,
2013-01-22 08:02:00,-9.0,-20.0,-100.00,West,281,5.0,8.0,57,0.00,,,0.00,0.000000,,2013-01-22 08:02:00,
2013-01-22 08:12:00,-10.0,-19.0,-100.00,West,267,4.0,9.0,62,0.00,,,0.00,0.000000,,2013-01-22 08:12:00,
2013-01-22 08:33:00,-10.0,-19.0,-100.00,West,267,4.0,9.0,62,0.00,,,0.00,0.000000,,2013-01-22 08:33:00,
2013-01-22 08:43:00,-10.0,-19.0,-100.00,West,267,4.0,9.0,62,0.00,,,0.00,0.000000,,2013-01-22 08:43:00,
2013-01-22 08:53:00,-10.0,-19.0,-100.00,West,267,4.0,9.0,62,0.00,,,0.00,0.000000,,2013-01-22 08:53:00,
2013-01-22 09:02:00,-10.0,-19.0,-100.00,West,267,4.0,9.0,62,0.00,,,0.00,0.000000,,2013-01-22 09:02:00,
2013-01-22 09:12:00,-10.0,-19.0,-100.00,West,273,6.0,9.0,63,0.00,,,0.00,0.000000,,2013-01-22 09:12:00,
2013-01-22 09:33:00,-10.0,-19.0,-100.00,West,273,6.0,9.0,63,0.00,,,0.00,0.000000,,2013-01-22 09:33:00,
2013-01-22 09:43:00,-10.0,-19.0,-100.00,West,273,6.0,9.0,63,0.00,,,0.00,0.000000,,2013-01-22 09:43:00,
2013-01-22 09:52:00,-10.0,-19.0,-100.00,West,273,6.0,9.0,63,0.00,,,0.00,0.000000,,2013-01-22 09:52:00,
2013-01-22 10:02:00,-10.0,-19.0,-100.00,West,273,6.0,9.0,63,0.00,,,0.00,0.000000,,2013-01-22 10:02:00,
2013-01-22 10:12:00,-10.0,-19.0,-100.00,West,281,5.0,10.0,63,0.00,,,0.00,0.000000,,2013-01-22 10:12:00,
2013-01-22 10:33:00,-10.0,-19.0,-100.00,West,281,5.0,10.0,63,0.00,,,0.00,0.000000,,2013-01-22 10:33:00,
2013-01-22 10:43:00,-10.0,-19.0,-100.00,West,281,5.0,10.0,63,0.00,,,0.00,0.000000,,2013-01-22 10:43:00,
2013-01-22 10:52:00,-10.0,-19.0,-100.00,West,281,5.0,10.0,63,0.00,,,0.00,0.000000,,2013-01-22 10:52:00,
2013-01-22 11:02:00,-10.0,-19.0,-100.00,West,281,5.0,10.0,63,0.00,,,0.00,0.000000,,2013-01-22 11:02:00,
2013-01-22 11:12:00,-10.0,-18.0,-100.00,West,267,4.0,8.0,66,0.00,,,0.00,0.000000,,2013-01-22 11:12:00,
2013-01-22 11:33:00,-10.0,-18.0,-100.00,West,267,4.0,8.0,66,0.00,,,0.00,0.000000,,2013-01-22 11:33:00,
2013-01-22 11:43:00,-10.0,-18.0,-100.00,West,267,4.0,8.0,66,0.00,,,0.00,0.000000,,2013-01-22 11:43:00,
2013-01-22 11:53:00,-10.0,-18.0,-100.00,West,267,4.0,8.0,66,0.00,,,0.00,0.000000,,2013-01-22 11:53:00,
2013-01-22 12:03:00,-10.0,-18.0,-100.00,West,267,4.0,8.0,66,0.00,,,0.00,0.000000,,2013-01-22 12:03:00,
2013-01-22 12:12:00,-11.0,-19.0,-100.00,West,278,3.0,7.0,68,0.00,,,0.00,0.000000,,2013-01-22 12:12:00,
2013-01-22 12:33:00,-11.0,-19.0,-100.00,West,278,3.0,7.0,68,0.00,,,0.00,0.000000,,2013-01-22 12:33:00,
2013-01-22 12:43:00,-11.0,-19.0,-100.00,West,278,3.0,7.0,68,0.00,,,0.00,0.000000,,2013-01-22 12:43:00,
2013-01-22 12:53:00,-11.0,-19.0,-100.00,West,278,3.0,7.0,68,0.00,,,0.00,0.000000,,2013-01-22 12:53:00,
2013-01-22 13:03:00,-11.0,-19.0,-100.00,West,278,3.0,7.0,68,0.00,,,0.00,0.000000,,2013-01-22 13:03:00,
2013-01-22 13:12:00,-10.0,-18.0,-100.00,WNW,303,6.0,10.0,67,0.00,,,0.00,0.000000,,2013-01-22 13:12:00,
2013-01-22 13:34:00,-10.0,-18.0,-100.00,WNW,303,6.0,10.0,67,0.00,,,0.00,0.000000,,2013-01-22 13:34:00,
2013-01-22 13:43:00,-10.0,-18.0,-100.00,WNW,303,6.0,10.0,67,0.00,,,0.00,0.000000,,2013-01-22 13:43:00,
2013-01-22 13:53:00,-10.0,-18.0,-100.00,WNW,303,6.0,10.0,67,0.00,,,0.00,0.000000,,2013-01-22 13:53:00,
2013-01-22 14:03:00,-10.0,-18.0,-100.00,WNW,303,6.0,10.0,67,0.00,,,0.00,0.000000,,2013-01-22 14:03:00,
2013-01-22 14:12:00,-9.0,-18.0,-100.00,WNW,301,7.0,11.0,63,0.00,,,0.00,13.000000,,2013-01-22 14:12:00,
2013-01-22 14:34:00,-9.0,-18.0,-100.00,WNW,301,7.0,11.0,63,0.00,,,0.00,13.000000,,2013-01-22 14:34:00,
2013-01-22 14:44:00,-9.0,-18.0,-100.00,WNW,301,7.0,11.0,63,0.00,,,0.00,13.000000,,2013-01-22 14:44:00,
2013-01-22 14:54:00,-9.0,-18.0,-100.00,WNW,301,7.0,11.0,63,0.00,,,0.00,13.000000,,2013-01-22 14:54:00,
2013-01-22 15:03:00,-9.0,-18.0,-100.00,WNW,301,7.0,11.0,63,0.00,,,0.00,13.000000,,2013-01-22 15:03:00,
2013-01-22 15:12:00,-6.0,-17.0,-100.00,WNW,301,8.0,13.0,57,0.00,,,0.00,103.000000,,2013-01-22 15:12:00,
2013-01-22 15:44:00,-6.0,-17.0,-100.00,WNW,301,8.0,13.0,57,0.00,,,0.00,103.000000,,2013-01-22 15:44:00,
2013-01-22 15:53:00,-6.0,-17.0,-100.00,WNW,301,8.0,13.0,57,0.00,,,0.00,103.000000,,2013-01-22 15:53:00,
2013-01-22 16:03:00,-6.0,-17.0,-100.00,WNW,301,8.0,13.0,57,0.00,,,0.00,103.000000,,2013-01-22 16:03:00,
2013-01-22 16:12:00,-3.0,-18.0,-100.00,WNW,294,8.0,13.0,48,0.00,,,0.00,303.000000,,2013-01-22 16:12:00,
2013-01-22 16:43:00,-3.0,-18.0,-100.00,WNW,294,8.0,13.0,48,0.00,,,0.00,303.000000,,2013-01-22 16:43:00,
2013-01-22 16:54:00,-3.0,-18.0,-100.00,WNW,294,8.0,13.0,48,0.00,,,0.00,303.000000,,2013-01-22 16:54:00,
2013-01-22 17:03:00,-3.0,-18.0,-100.00,WNW,294,8.0,13.0,48,0.00,,,0.00,303.000000,,2013-01-22 17:03:00,
2013-01-22 17:12:00,-1.0,-16.0,-100.00,WNW,298,7.0,14.0,47,0.00,,,0.00,408.000000,,2013-01-22 17:12:00,
2013-01-22 17:35:00,-1.0,-16.0,-100.00,WNW,298,7.0,14.0,47,0.00,,,0.00,408.000000,,2013-01-22 17:35:00,
2013-01-22 17:44:00,-1.0,-16.0,-100.00,WNW,298,7.0,14.0,47,0.00,,,0.00,408.000000,,2013-01-22 17:44:00,
2013-01-22 17:54:00,-1.0,-16.0,-100.00,WNW,298,7.0,14.0,47,0.00,,,0.00,408.000000,,2013-01-22 17:54:00,
2013-01-22 18:03:00,-1.0,-16.0,-100.00,WNW,298,7.0,14.0,47,0.00,,,0.00,408.000000,,2013-01-22 18:03:00,
2013-01-22 18:12:00,1.0,-15.0,-100.00,WNW,293,10.0,15.0,45,0.00,,,0.00,425.000000,,2013-01-22 18:12:00,
2013-01-22 18:34:00,1.0,-15.0,-100.00,WNW,293,10.0,15.0,45,0.00,,,0.00,425.000000,,2013-01-22 18:34:00,
2013-01-22 18:44:00,1.0,-15.0,-100.00,WNW,293,10.0,15.0,45,0.00,,,0.00,425.000000,,2013-01-22 18:44:00,
2013-01-22 18:54:00,1.0,-15.0,-100.00,WNW,293,10.0,15.0,45,0.00,,,0.00,425.000000,,2013-01-22 18:54:00,
2013-01-22 19:03:00,1.0,-15.0,-100.00,WNW,293,10.0,15.0,45,0.00,,,0.00,425.000000,,2013-01-22 19:03:00,
2013-01-22 19:12:00,3.0,-14.0,-100.00,West,274,7.0,14.0,44,0.00,,,0.00,407.000000,,2013-01-22 19:12:00,
2013-01-22 19:34:00,3.0,-14.0,-100.00,West,274,7.0,14.0,44,0.00,,,0.00,407.000000,,2013-01-22 19:34:00,
2013-01-22 19:43:00,3.0,-14.0,-100.00,West,274,7.0,14.0,44,0.00,,,0.00,407.000000,,2013-01-22 19:43:00,
2013-01-22 19:54:00,3.0,-14.0,-100.00,West,274,7.0,14.0,44,0.00,,,0.00,407.000000,,2013-01-22 19:54:00,
2013-01-22 20:03:00,3.0,-14.0,-100.00,West,274,7.0,14.0,44,0.00,,,0.00,407.000000,,2013-01-22 20:03:00,
2013-01-22 20:12:00,4.0,-14.0,-100.00,WNW,297,8.0,14.0,42,0.00,,,-99.99,406.000000,,2013-01-22 20:12:00,
2013-01-22 20:34:00,4.0,-14.0,-100.00,WNW,297,8.0,14.0,42,0.00,,,-99.99,406.000000,,2013-01-22 20:34:00,
2013-01-22 20:43:00,4.0,-14.0,-100.00,WNW,297,8.0,14.0,42,0.00,,,-99.99,406.000000,,2013-01-22 20:43:00,
2013-01-22 20:53:00,4.0,-14.0,-100.00,WNW,297,8.0,14.0,42,0.00,,,-99.99,406.000000,,2013-01-22 20:53:00,
2013-01-22 21:03:00,4.0,-14.0,-100.00,WNW,297,8.0,14.0,42,0.00,,,-99.99,406.000000,,2013-01-22 21:03:00,
2013-01-22 21:12:00,4.0,-14.0,-100.00,WNW,286,7.0,13.0,41,0.00,,,0.00,298.000000,,2013-01-22 21:12:00,
2013-01-22 21:43:00,4.0,-14.0,-100.00,WNW,286,7.0,13.0,41,0.00,,,0.00,298.000000,,2013-01-22 21:43:00,
2013-01-22 21:53:00,4.0,-14.0,-100.00,WNW,286,7.0,13.0,41,0.00,,,0.00,298.000000,,2013-01-22 21:53:00,
2013-01-22 22:03:00,4.0,-14.0,-100.00,WNW,286,7.0,13.0,41,0.00,,,0.00,298.000000,,2013-01-22 22:03:00,
2013-01-22 22:12:00,2.0,-14.0,-100.00,WNW,284,7.0,13.0,46,0.00,,,0.00,51.000000,,2013-01-22 22:12:00,
2013-01-22 22:43:00,2.0,-14.0,-100.00,WNW,284,7.0,13.0,46,0.00,,,0.00,51.000000,,2013-01-22 22:43:00,
2013-01-22 22:53:00,2.0,-14.0,-100.00,WNW,284,7.0,13.0,46,0.00,,,0.00,51.000000,,2013-01-22 22:53:00,
2013-01-22 23:03:00,2.0,-14.0,-100.00,WNW,284,7.0,13.0,46,0.00,,,0.00,51.000000,,2013-01-22 23:03:00,
2013-01-22 23:12:00,1.0,-14.0,-100.00,West,279,5.0,10.0,48,0.00,,,0.00,13.000000,,2013-01-22 23:12:00,
2013-01-22 23:33:00,1.0,-14.0,-100.00,West,279,5.0,10.0,48,0.00,,,0.00,13.000000,,2013-01-22 23:33:00,
2013-01-22 23:43:00,1.0,-14.0,-100.00,West,279,5.0,10.0,48,0.00,,,0.00,13.000000,,2013-01-22 23:43:00,
2013-01-22 23:53:00,1.0,-14.0,-100.00,West,279,5.0,10.0,48,0.00,,,0.00,13.000000,,2013-01-22 23:53:00,